{"data":{"norad_id":65385,"intl_designator":"2025-191G","name":"STARLINK-35073","alt_names":[],"object_type":"PAYLOAD","status":"ACTIVE","operator":null,"country":"US","launch_date":"2025-08-30","launch_site_code":"AFWTR","launch_vehicle":null,"mission":null,"orbit_class":"UNKNOWN","rcs_meters":null,"size_class":null,"mass_kg":null,"dimensions":null,"purposes":["comms"],"wikipedia_slug":null,"has_3d_model":false,"image_url":null,"decayed_at":null,"tle_current":{"epoch":"2026-05-25T03:24:01.633248Z","epoch_age_seconds":62892,"freshness":"FRESH","line1":"1 65385U 25191G   26145.14168557  .00002650  00000+0  18766-3 0  9993","line2":"2 65385  97.4513  16.5102 0002503  92.1389 268.0125 15.05654491 41778","mean_motion":15.05654491,"eccentricity":0.0002503,"inclination_deg":97.4513,"raan_deg":16.5102,"arg_perigee_deg":92.1389,"mean_anomaly_deg":268.0125,"bstar":0.00018766,"rev_number":4177,"period_min":95.639471645557,"perigee_km":547.76339149119,"apogee_km":551.231365261,"semimajor_km":6927.6343783761,"source":"CELESTRAK","updated_at":"2026-05-25T13:38:20.773011Z"}}}